QPF
0.00 0.00 0.00 0.00 0.00 0.00 0.00 0.00 0.00 0.00 0.00 0.00 0.01 0.01 0.00 0.00 0.01 0.02 0.01 0.01 0.00 0.01 0.01 0.00 0.00 0.00 0.01 0.01 0.00 0.00 0.01 0.01 0.00 0.00 0.01 0.00 0.01 0.01 0.01 0.01 0.01 0.01 0.01 0.01
0.00 0.00 0.00 0.00 0.00 0.00 0.00 0.00 0.00 0.00 0.00 0.00 0.00 0.00 0.01 0.01 0.01 0.02 0.02 0.01 0.00 0.00 0.00 0.00 0.01 0.01 0.01 0.01 0.01 0.01 0.01 0.01 0.00 0.00 0.01 0.01 0.00 0.01 0.01 0.01 0.01 0.01 0.01 0.01
0.00 0.00 0.00 0.00 0.00 0.00 0.00 0.00 0.00 0.00 0.00 0.00 0.00 0.00 0.01 0.01 0.01 0.01 0.01 0.01 0.00 0.00 0.00 0.00 0.01 0.02 0.02 0.01 0.01 0.01 0.01 0.01 0.00 0.00 0.00 0.00 0.00 0.00 0.01 0.01 0.01 0.01 0.01 0.01
0.00 0.00 0.00 0.00 0.00 0.01 0.00 0.00 0.00 0.00 0.00 0.00 0.00 0.00 0.00 0.01 0.01 0.01 0.01 0.01 0.01 0.01 0.00 0.00 0.01 0.02 0.02 0.02 0.02 0.01 0.02 0.01 0.00 0.00 0.00 0.00 0.00 0.00 0.00 0.01 0.01 0.01 0.01 0.01
0.00 0.00 0.00 0.00 0.01 0.01 0.00 0.00 0.01 0.00 0.00 0.00 0.00 0.00 0.00 0.01 0.00 0.00 0.01 0.01 0.01 0.01 0.01 0.01 0.01 0.01 0.02 0.03 0.03 0.02 0.02 0.02 0.01 0.00 0.00 0.00 0.01 0.01 0.01 0.01 0.01 0.01 0.01 0.01
0.00 0.00 0.00 0.00 0.00 0.00 0.00 0.01 0.01 0.00 0.00 0.00 0.00 0.00 0.00 0.00 0.01 0.01 0.01 0.01 0.01 0.01 0.01 0.01 0.01 0.01 0.02 0.02 0.02 0.02 0.02 0.02 0.01 0.01 0.00 0.01 0.02 0.01 0.01 0.01 0.01 0.01 0.00 0.01
0.00 0.00 0.00 0.00 0.00 0.00 0.00 0.01 0.01 0.01 0.00 0.00 0.00 0.00 0.00 0.00 0.00 0.01 0.01 0.00 0.00 0.01 0.01 0.02 0.01 0.01 0.01 0.01 0.01 0.01 0.01 0.01 0.01 0.01 0.00 0.00 0.01 0.01 0.02 0.02 0.01 0.01 0.01 0.00
0.00 0.00 0.00 0.01 0.01 0.00 0.00 0.00 0.01 0.01 0.00 0.00 0.00 0.00 0.00 0.00 0.00 0.00 0.00 0.00 0.00 0.00 0.01 0.01 0.01 0.02 0.01 0.01 0.01 0.01 0.01 0.01 0.01 0.01 0.01 0.00 0.00 0.00 0.02 0.03 0.02 0.01 0.01 0.01
0.00 0.00 0.00 0.01 0.01 0.01 0.00 0.00 0.01 0.01 0.01 0.00 0.00 0.00 0.00 0.01 0.02 0.01 0.01 0.00 0.01 0.00 0.00 0.01 0.02 0.03 0.02 0.01 0.01 0.01 0.01 0.01 0.01 0.00 0.01 0.01 0.01 0.01 0.01 0.02 0.02 0.02 0.02 0.02
0.00 0.00 0.00 0.00 0.00 0.01 0.00 0.01 0.01 0.01 0.01 0.01 0.01 0.00 0.01 0.03 0.03 0.03 0.01 0.01 0.01 0.01 0.01 0.01 0.01 0.02 0.02 0.01 0.01 0.01 0.01 0.01 0.01 0.00 0.01 0.01 0.02 0.02 0.02 0.02 0.02 0.01 0.02 0.01
0.00 0.00 0.00 0.01 0.00 0.01 0.01 0.00 0.00 0.00 0.01 0.01 0.01 0.01 0.01 0.02 0.02 0.03 0.03 0.01 0.01 0.01 0.01 0.01 0.01 0.01 0.02 0.02 0.02 0.02 0.02 0.01 0.01 0.01 0.01 0.01 0.02 0.02 0.01 0.01 0.01 0.00 0.00 0.01
0.00 0.00 0.00 0.01 0.00 0.00 0.00 0.00 0.00 0.00 0.00 0.00 0.00 0.00 0.01 0.01 0.01 0.01 0.01 0.01 0.01 0.01 0.01 0.01 0.00 0.00 0.01 0.01 0.01 0.02 0.02 0.02 0.02 0.01 0.01 0.01 0.02 0.02 0.01 0.01 0.00 0.01 0.00 0.01
0.01 0.01 0.01 0.00 0.00 0.00 0.00 0.00 0.00 0.00 0.00 0.00 0.00 0.00 0.00 0.00 0.00 0.00 0.00 0.00 0.01 0.01 0.01 0.01 0.01 0.01 0.01 0.01 0.02 0.02 0.03 0.03 0.02 0.02 0.02 0.02 0.02 0.02 0.02 0.01 0.00 0.00 0.01 0.01
0.01 0.01 0.01 0.00 0.00 0.00 0.01 0.00 0.00 0.00 0.00 0.00 0.00 0.00 0.00 0.00 0.00 0.00 0.01 0.00 0.00 0.00 0.00 0.01 0.01 0.01 0.01 0.02 0.02 0.03 0.02 0.03 0.03 0.03 0.02 0.02 0.02 0.02 0.03 0.02 0.01 0.00 0.00 0.00
0.01 0.01 0.01 0.01 0.00 0.00 0.00 0.00 0.00 0.00 0.00 0.00 0.00 0.00 0.00 0.00 0.00 0.00 0.00 0.00 0.00 0.00 0.00 0.00 0.01 0.01 0.01 0.02 0.02 0.02 0.03 0.03 0.02 0.02 0.02 0.02 0.03 0.03 0.02 0.02 0.01 0.00 0.00 0.00
0.02 0.01 0.01 0.01 0.00 0.00 0.00 0.00 0.00 0.00 0.00 0.00 0.00 0.00 0.00 0.00 0.00 0.00 0.00 0.00 0.00 0.00 0.00 0.00 0.00 0.00 0.01 0.01 0.01 0.02 0.02 0.03 0.03 0.02 0.02 0.02 0.02 0.02 0.02 0.02 0.01 0.00 0.00 0.00
0.01 0.01 0.01 0.01 0.00 0.01 0.01 0.00 0.00 0.00 0.00 0.00 0.00 0.00 0.00 0.00 0.00 0.00 0.00 0.00 0.00 0.00 0.00 0.00 0.00 0.00 0.00 0.01 0.01 0.01 0.02 0.02 0.02 0.02 0.02 0.02 0.02 0.02 0.02 0.02 0.01 0.01 0.00 0.00
0.01 0.02 0.03 0.01 0.01 0.01 0.00 0.00 0.00 0.00 0.00 0.00 0.00 0.00 0.00 0.00 0.00 0.00 0.00 0.00 0.00 0.01 0.00 0.00 0.00 0.00 0.00 0.01 0.01 0.01 0.02 0.01 0.02 0.02 0.02 0.01 0.01 0.02 0.02 0.02 0.01 0.01 0.01 0.00
0.01 0.02 0.04 0.02 0.01 0.00 0.00 0.00 0.00 0.00 0.01 0.00 0.00 0.00 0.00 0.00 0.00 0.00 0.00 0.00 0.00 0.01 0.00 0.00 0.00 0.00 0.01 0.01 0.01 0.01 0.01 0.01 0.02 0.01 0.01 0.02 0.02 0.01 0.01 0.01 0.01 0.01 0.01 0.00
0.01 0.02 0.03 0.03 0.02 0.01 0.00 0.00 0.01 0.02 0.02 0.02 0.02 0.02 0.01 0.00 0.00 0.00 0.00 0.00 0.00 0.00 0.00 0.00 0.00 0.01 0.02 0.02 0.01 0.01 0.01 0.01 0.01 0.01 0.01 0.02 0.03 0.02 0.01 0.01 0.01 0.01 0.01 0.01
0.01 0.01 0.02 0.02 0.02 0.01 0.00 0.01 0.02 0.03 0.03 0.03 0.02 0.02 0.02 0.01 0.00 0.00 0.00 0.00 0.00 0.00 0.00 0.00 0.00 0.01 0.02 0.02 0.01 0.01 0.01 0.01 0.01 0.02 0.02 0.01 0.02 0.02 0.02 0.01 0.01 0.01 0.01 0.01
0.02 0.02 0.02 0.02 0.02 0.01 0.01 0.02 0.02 0.02 0.02 0.03 0.03 0.02 0.02 0.02 0.01 0.00 0.00 0.00 0.00 0.00 0.00 0.00 0.00 0.01 0.02 0.02 0.02 0.01 0.01 0.01 0.02 0.02 0.02 0.02 0.02 0.02 0.02 0.02 0.02 0.02 0.01 0.01
0.03 0.03 0.03 0.03 0.02 0.01 0.02 0.02 0.02 0.03 0.04 0.03 0.03 0.01 0.02 0.02 0.01 0.00 0.00 0.00 0.00 0.00 0.00 0.00 0.00 0.01 0.01 0.01 0.02 0.01 0.01 0.02 0.01 0.01 0.02 0.02 0.02 0.02 0.03 0.02 0.02 0.02 0.02 0.01
0.03 0.03 0.04 0.04 0.03 0.02 0.03 0.04 0.04 0.05 0.04 0.02 0.02 0.01 0.01 0.01 0.00 0.00 0.00 0.00 0.00 0.00 0.00 0.00 0.00 0.01 0.01 0.01 0.02 0.02 0.02 0.01 0.02 0.02 0.02 0.01 0.01 0.02 0.03 0.04 0.03 0.02 0.01 0.01
0.03 0.04 0.04 0.04 0.04 0.03 0.05 0.06 0.06 0.06 0.04 0.02 0.02 0.01 0.01 0.01 0.00 0.00 0.00 0.00 0.00 0.01 0.01 0.01 0.00 0.01 0.01 0.01 0.02 0.02 0.02 0.01 0.02 0.02 0.02 0.01 0.01 0.01 0.02 0.02 0.02 0.03 0.02 0.02
0.02 0.04 0.06 0.05 0.05 0.06 0.05 0.05 0.05 0.03 0.02 0.01 0.01 0.01 0.01 0.00 0.00 0.00 0.00 0.00 0.00 0.01 0.01 0.01 0.01 0.01 0.01 0.02 0.02 0.02 0.01 0.01 0.02 0.02 0.01 0.01 0.01 0.01 0.02 0.02 0.03 0.02 0.02 0.03
MSLP
1016.85 1017.77 1018.52 1019.08 1019.48 1019.75 1019.93 1020.08 1020.21 1020.35 1020.47 1020.57 1020.62 1020.61 1020.52 1020.37 1020.15 1019.90 1019.61 1019.29 1018.95 1018.58 1018.19 1017.80 1017.42 1017.08 1016.84 1016.71 1016.71 1016.87 1017.14 1017.50 1017.89 1018.24 1018.51 1018.66 1018.68 1018.58 1018.38 1018.15 1017.92 1017.73 1017.62 1017.59
1017.50 1018.26 1018.82 1019.20 1019.46 1019.64 1019.81 1020.00 1020.24 1020.49 1020.74 1020.92 1021.00 1020.96 1020.79 1020.50 1020.14 1019.74 1019.33 1018.93 1018.56 1018.20 1017.86 1017.54 1017.23 1016.96 1016.77 1016.67 1016.71 1016.88 1017.17 1017.56 1017.99 1018.39 1018.70 1018.89 1018.94 1018.84 1018.64 1018.38 1018.12 1017.90 1017.76 1017.71
1017.97 1018.52 1018.88 1019.10 1019.24 1019.38 1019.58 1019.88 1020.25 1020.65 1021.03 1021.29 1021.39 1021.29 1021.01 1020.56 1020.02 1019.45 1018.90 1018.41 1018.01 1017.68 1017.41 1017.17 1016.97 1016.80 1016.68 1016.63 1016.70 1016.88 1017.19 1017.59 1018.04 1018.46 1018.81 1019.04 1019.12 1019.04 1018.84 1018.57 1018.29 1018.05 1017.88 1017.79
1018.25 1018.60 1018.78 1018.87 1018.94 1019.10 1019.38 1019.82 1020.36 1020.93 1021.43 1021.77 1021.86 1021.68 1021.24 1020.60 1019.84 1019.07 1018.36 1017.78 1017.34 1017.04 1016.85 1016.73 1016.64 1016.59 1016.56 1016.58 1016.67 1016.87 1017.17 1017.57 1018.01 1018.45 1018.82 1019.08 1019.19 1019.15 1018.97 1018.71 1018.42 1018.15 1017.95 1017.82
1018.41 1018.58 1018.61 1018.61 1018.68 1018.90 1019.32 1019.93 1020.67 1021.40 1022.02 1022.40 1022.45 1022.15 1021.53 1020.66 1019.67 1018.68 1017.81 1017.11 1016.63 1016.36 1016.25 1016.24 1016.28 1016.35 1016.41 1016.50 1016.62 1016.82 1017.11 1017.49 1017.91 1018.35 1018.73 1019.02 1019.17 1019.16 1019.03 1018.79 1018.51 1018.23 1018.00 1017.83
1018.52 1018.53 1018.47 1018.45 1018.56 1018.90 1019.48 1020.28 1021.19 1022.08 1022.78 1023.17 1023.16 1022.72 1021.89 1020.78 1019.55 1018.34 1017.29 1016.49 1015.96 1015.71 1015.67 1015.77 1015.94 1016.11 1016.27 1016.41 1016.56 1016.75 1017.02 1017.35 1017.75 1018.17 1018.56 1018.87 1019.06 1019.11 1019.03 1018.84 1018.58 1018.31 1018.05 1017.84
1018.62 1018.53 1018.43 1018.43 1018.63 1019.10 1019.85 1020.83 1021.90 1022.89 1023.65 1024.02 1023.91 1023.31 1022.28 1020.95 1019.49 1018.08 1016.87 1015.97 1015.40 1015.16 1015.19 1015.38 1015.65 1015.92 1016.15 1016.34 1016.51 1016.68 1016.91 1017.20 1017.56 1017.96 1018.35 1018.68 1018.92 1019.03 1019.02 1018.89 1018.67 1018.42 1018.16 1017.92
1018.72 1018.59 1018.50 1018.56 1018.87 1019.48 1020.38 1021.49 1022.67 1023.73 1024.48 1024.80 1024.58 1023.83 1022.62 1021.10 1019.46 1017.90 1016.57 1015.59 1015.01 1014.78 1014.86 1015.13 1015.47 1015.82 1016.11 1016.33 1016.49 1016.65 1016.84 1017.08 1017.40 1017.76 1018.15 1018.51 1018.80 1018.98 1019.03 1018.97 1018.82 1018.60 1018.35 1018.10
1018.81 1018.69 1018.65 1018.80 1019.21 1019.94 1020.95 1022.14 1023.36 1024.41 1025.12 1025.35 1025.03 1024.15 1022.81 1021.16 1019.42 1017.77 1016.38 1015.38 1014.79 1014.59 1014.71 1015.03 1015.43 1015.83 1016.15 1016.39 1016.55 1016.68 1016.83 1017.03 1017.31 1017.65 1018.03 1018.41 1018.75 1018.99 1019.12 1019.14 1019.05 1018.88 1018.66 1018.41
1018.86 1018.79 1018.83 1019.07 1019.58 1020.38 1021.43 1022.63 1023.81 1024.80 1025.42 1025.55 1025.12 1024.16 1022.75 1021.06 1019.29 1017.64 1016.27 1015.29 1014.73 1014.57 1014.73 1015.08 1015.52 1015.95 1016.29 1016.53 1016.69 1016.80 1016.92 1017.09 1017.33 1017.66 1018.04 1018.44 1018.82 1019.12 1019.33 1019.41 1019.39 1019.27 1019.09 1018.86
1018.83 1018.86 1019.00 1019.32 1019.89 1020.71 1021.73 1022.86 1023.94 1024.80 1025.29 1025.30 1024.79 1023.79 1022.38 1020.73 1019.03 1017.46 1016.18 1015.28 1014.78 1014.67 1014.86 1015.24 1015.70 1016.13 1016.48 1016.73 1016.88 1016.99 1017.09 1017.25 1017.49 1017.81 1018.20 1018.62 1019.03 1019.39 1019.65 1019.80 1019.84 1019.78 1019.63 1019.43
1018.74 1018.88 1019.12 1019.52 1020.11 1020.89 1021.82 1022.81 1023.71 1024.39 1024.73 1024.63 1024.05 1023.05 1021.71 1020.17 1018.61 1017.20 1016.06 1015.27 1014.87 1014.81 1015.03 1015.42 1015.87 1016.30 1016.66 1016.91 1017.08 1017.20 1017.33 1017.50 1017.75 1018.09 1018.50 1018.94 1019.39 1019.79 1020.10 1020.30 1020.39 1020.37 1020.27 1020.10
1018.63 1018.89 1019.23 1019.67 1020.24 1020.95 1021.73 1022.52 1023.20 1023.67 1023.83 1023.61 1023.00 1022.03 1020.80 1019.43 1018.06 1016.84 1015.87 1015.23 1014.91 1014.91 1015.14 1015.53 1015.97 1016.39 1016.74 1017.02 1017.22 1017.39 1017.56 1017.78 1018.08 1018.46 1018.90 1019.38 1019.85 1020.29 1020.64 1020.88 1021.01 1021.03 1020.96 1020.83
1018.57 1018.95 1019.36 1019.82 1020.35 1020.93 1021.53 1022.08 1022.52 1022.76 1022.73 1022.40 1021.76 1020.85 1019.75 1018.56 1017.41 1016.39 1015.60 1015.09 1014.86 1014.90 1015.13 1015.49 1015.91 1016.31 1016.68 1016.99 1017.25 1017.49 1017.75 1018.05 1018.42 1018.86 1019.36 1019.88 1020.39 1020.86 1021.24 1021.52 1021.68 1021.74 1021.70 1021.59
1018.63 1019.09 1019.55 1020.01 1020.46 1020.89 1021.28 1021.59 1021.78 1021.78 1021.57 1021.14 1020.48 1019.63 1018.67 1017.66 1016.71 1015.89 1015.26 1014.86 1014.69 1014.73 1014.95 1015.27 1015.65 1016.05 1016.43 1016.79 1017.13 1017.48 1017.85 1018.26 1018.74 1019.26 1019.83 1020.40 1020.96 1021.46 1021.88 1022.18 1022.38 1022.46 1022.45 1022.37
1018.83 1019.36 1019.83 1020.25 1020.60 1020.87 1021.05 1021.12 1021.05 1020.84 1020.47 1019.94 1019.26 1018.48 1017.64 1016.80 1016.02 1015.36 1014.86 1014.53 1014.39 1014.43 1014.60 1014.88 1015.23 1015.62 1016.03 1016.45 1016.89 1017.35 1017.86 1018.40 1018.99 1019.62 1020.27 1020.91 1021.52 1022.06 1022.51 1022.85 1023.08 1023.20 1023.21 1023.16
1019.18 1019.71 1020.16 1020.51 1020.74 1020.85 1020.82 1020.66 1020.38 1019.98 1019.46 1018.86 1018.18 1017.45 1016.72 1016.02 1015.38 1014.84 1014.43 1014.15 1014.02 1014.02 1014.15 1014.38 1014.69 1015.08 1015.53 1016.02 1016.57 1017.16 1017.81 1018.49 1019.20 1019.94 1020.67 1021.38 1022.04 1022.62 1023.11 1023.49 1023.76 1023.92 1023.97 1023.95
1019.59 1020.09 1020.47 1020.72 1020.81 1020.75 1020.53 1020.18 1019.72 1019.16 1018.54 1017.89 1017.22 1016.55 1015.91 1015.33 1014.80 1014.36 1014.01 1013.76 1013.61 1013.58 1013.66 1013.86 1014.15 1014.55 1015.03 1015.61 1016.26 1016.98 1017.75 1018.56 1019.39 1020.22 1021.03 1021.79 1022.50 1023.13 1023.66 1024.09 1024.40 1024.61 1024.71 1024.73
1019.97 1020.37 1020.64 1020.76 1020.71 1020.48 1020.10 1019.59 1018.99 1018.33 1017.65 1016.98 1016.34 1015.74 1015.19 1014.71 1014.28 1013.92 1013.62 1013.39 1013.25 1013.20 1013.25 1013.42 1013.71 1014.13 1014.66 1015.31 1016.06 1016.88 1017.76 1018.67 1019.58 1020.48 1021.35 1022.16 1022.90 1023.57 1024.14 1024.61 1024.98 1025.25 1025.41 1025.47
1020.19 1020.45 1020.58 1020.55 1020.35 1019.97 1019.46 1018.83 1018.14 1017.42 1016.72 1016.07 1015.48 1014.96 1014.52 1014.13 1013.81 1013.52 1013.29 1013.10 1012.97 1012.93 1012.98 1013.15 1013.46 1013.91 1014.49 1015.20 1016.02 1016.92 1017.87 1018.84 1019.81 1020.75 1021.64 1022.47 1023.24 1023.93 1024.53 1025.05 1025.47 1025.80 1026.02 1026.14
1020.17 1020.27 1020.24 1020.05 1019.70 1019.20 1018.58 1017.87 1017.14 1016.41 1015.73 1015.13 1014.62 1014.20 1013.86 1013.59 1013.37 1013.18 1013.02 1012.89 1012.81 1012.80 1012.88 1013.09 1013.43 1013.91 1014.54 1015.30 1016.17 1017.11 1018.10 1019.09 1020.07 1021.01 1021.90 1022.73 1023.50 1024.20 1024.83 1025.38 1025.85 1026.23 1026.51 1026.70
1019.87 1019.81 1019.61 1019.27 1018.79 1018.19 1017.50 1016.76 1016.02 1015.32 1014.69 1014.17 1013.75 1013.44 1013.22 1013.07 1012.96 1012.87 1012.81 1012.77 1012.76 1012.81 1012.96 1013.21 1013.60 1014.13 1014.79 1015.58 1016.47 1017.42 1018.41 1019.39 1020.35 1021.27 1022.13 1022.94 1023.69 1024.38 1025.02 1025.60 1026.11 1026.53 1026.87 1027.11
1019.31 1019.09 1018.75 1018.30 1017.72 1017.06 1016.34 1015.59 1014.88 1014.23 1013.68 1013.25 1012.94 1012.73 1012.62 1012.58 1012.59 1012.61 1012.65 1012.70 1012.79 1012.93 1013.14 1013.46 1013.90 1014.47 1015.16 1015.96 1016.85 1017.79 1018.74 1019.69 1020.61 1021.48 1022.30 1023.07 1023.80 1024.48 1025.12 1025.71 1026.24 1026.71 1027.09 1027.38
1018.55 1018.20 1017.76 1017.22 1016.60 1015.91 1015.20 1014.49 1013.83 1013.26 1012.79 1012.44 1012.23 1012.12 1012.11 1012.16 1012.26 1012.39 1012.52 1012.67 1012.85 1013.07 1013.36 1013.74 1014.23 1014.83 1015.54 1016.34 1017.20 1018.11 1019.03 1019.93 1020.80 1021.62 1022.41 1023.14 1023.84 1024.51 1025.14 1025.74 1026.28 1026.77 1027.19 1027.51
1017.62 1017.20 1016.71 1016.15 1015.53 1014.87 1014.20 1013.56 1012.97 1012.48 1012.09 1011.82 1011.68 1011.64 1011.70 1011.82 1011.99 1012.19 1012.40 1012.63 1012.89 1013.18 1013.54 1013.97 1014.49 1015.11 1015.82 1016.60 1017.44 1018.31 1019.18 1020.05 1020.88 1021.67 1022.43 1023.14 1023.83 1024.49 1025.12 1025.72 1026.27 1026.77 1027.20 1027.55
1016.59 1016.16 1015.67 1015.14 1014.57 1013.98 1013.40 1012.84 1012.35 1011.93 1011.61 1011.40 1011.31 1011.31 1011.40 1011.56 1011.77 1012.00 1012.26 1012.54 1012.85 1013.20 1013.60 1014.06 1014.60 1015.22 1015.92 1016.68 1017.49 1018.33 1019.17 1020.01 1020.82 1021.60 1022.36 1023.08 1023.78 1024.45 1025.09 1025.69 1026.25 1026.75 1027.18 1027.54
Thickness
5724 5711 5702 5706 5709 5709 5705 5700 5697 5705 5718 5713 5708 5710 5716 5721 5719 5717 5717 5717 5719 5722 5727 5729 5728 5728 5726 5724 5722 5721 5719 5718 5716 5714 5712 5711 5710 5710 5711 5711 5711 5711 5711 5711
5707 5703 5714 5717 5714 5710 5704 5697 5697 5705 5715 5711 5705 5707 5715 5718 5718 5720 5719 5718 5720 5721 5722 5724 5725 5724 5723 5722 5720 5719 5717 5716 5715 5713 5711 5710 5708 5707 5707 5707 5707 5707 5708 5708
5702 5709 5720 5715 5709 5703 5700 5697 5698 5699 5705 5706 5702 5699 5706 5715 5719 5721 5721 5722 5722 5722 5721 5722 5722 5721 5720 5719 5719 5719 5716 5714 5713 5711 5709 5707 5705 5704 5703 5703 5703 5703 5704 5704
5703 5712 5714 5709 5705 5703 5693 5706 5705 5700 5690 5682 5691 5675 5696 5704 5709 5715 5717 5719 5721 5723 5723 5721 5722 5720 5719 5719 5719 5717 5715 5712 5711 5709 5707 5704 5701 5699 5699 5699 5700 5700 5700 5701
5699 5707 5706 5702 5705 5705 5701 5707 5702 5696 5687 5678 5681 5673 5683 5698 5701 5709 5716 5719 5721 5723 5723 5722 5722 5722 5720 5719 5717 5715 5712 5710 5709 5707 5705 5703 5700 5698 5697 5697 5697 5696 5697 5697
5700 5709 5708 5706 5709 5709 5705 5696 5689 5680 5673 5663 5674 5669 5673 5688 5699 5708 5716 5720 5722 5723 5723 5723 5722 5721 5719 5717 5715 5713 5710 5708 5707 5705 5703 5701 5699 5697 5695 5694 5693 5693 5693 5693
5687 5696 5705 5708 5699 5699 5694 5676 5658 5656 5650 5656 5673 5669 5676 5699 5707 5710 5714 5718 5720 5721 5720 5719 5718 5717 5716 5715 5713 5711 5708 5706 5704 5703 5701 5700 5698 5696 5694 5693 5691 5690 5689 5689
5669 5671 5692 5700 5695 5687 5684 5676 5655 5647 5645 5652 5666 5665 5684 5704 5709 5713 5715 5717 5719 5718 5718 5717 5717 5716 5715 5714 5712 5709 5706 5704 5702 5700 5699 5698 5697 5695 5693 5692 5690 5689 5688 5688
5663 5667 5690 5698 5699 5691 5678 5670 5672 5656 5654 5648 5656 5668 5687 5703 5705 5708 5710 5712 5713 5714 5715 5715 5714 5713 5712 5711 5710 5709 5706 5703 5701 5699 5698 5696 5695 5694 5692 5690 5689 5688 5687 5687
5670 5664 5678 5688 5691 5688 5683 5671 5657 5650 5643 5639 5651 5660 5669 5688 5694 5700 5702 5704 5707 5710 5711 5711 5711 5711 5710 5709 5709 5707 5705 5703 5701 5699 5697 5695 5693 5692 5691 5689 5687 5686 5685 5685
5672 5660 5664 5673 5672 5670 5669 5665 5657 5646 5645 5638 5638 5655 5683 5686 5692 5693 5697 5701 5704 5705 5706 5707 5707 5708 5708 5707 5705 5704 5702 5700 5698 5697 5695 5694 5692 5690 5689 5687 5686 5685 5684 5682
5665 5652 5646 5659 5674 5677 5673 5667 5655 5645 5641 5639 5637 5653 5689 5688 5690 5691 5694 5698 5701 5702 5703 5704 5703 5703 5703 5702 5702 5701 5700 5698 5697 5696 5693 5691 5690 5688 5686 5685 5684 5683 5682 5680
5660 5647 5636 5643 5654 5664 5665 5664 5658 5649 5638 5631 5633 5653 5685 5684 5686 5688 5690 5693 5695 5697 5698 5699 5699 5698 5699 5699 5698 5698 5697 5696 5695 5693 5691 5688 5687 5686 5684 5684 5683 5681 5680 5678
5661 5644 5638 5636 5643 5652 5654 5657 5655 5647 5634 5632 5639 5653 5672 5676 5679 5684 5686 5688 5690 5692 5693 5693 5694 5694 5695 5696 5695 5694 5693 5693 5692 5690 5688 5686 5685 5684 5683 5682 5680 5679 5677 5675
5653 5640 5643 5646 5652 5653 5653 5655 5653 5648 5645 5640 5648 5652 5665 5672 5676 5680 5682 5683 5685 5686 5688 5689 5690 5691 5691 5692 5691 5690 5690 5690 5690 5688 5686 5685 5684 5683 5681 5679 5678 5677 5675 5673
5641 5637 5638 5640 5647 5647 5646 5651 5651 5650 5649 5647 5649 5652 5668 5671 5672 5674 5676 5678 5679 5682 5685 5686 5687 5688 5688 5689 5688 5687 5687 5687 5686 5685 5684 5683 5681 5680 5678 5677 5675 5673 5672 5670
5631 5629 5625 5624 5635 5638 5635 5649 5650 5649 5651 5649 5646 5656 5664 5665 5667 5670 5673 5674 5676 5679 5682 5683 5684 5686 5687 5687 5687 5685 5685 5684 5682 5681 5680 5679 5678 5676 5675 5674 5672 5670 5668 5667
5627 5621 5612 5614 5622 5618 5642 5656 5656 5651 5652 5652 5653 5657 5660 5664 5667 5670 5672 5673 5674 5677 5679 5681 5682 5683 5685 5685 5684 5683 5681 5680 5679 5678 5677 5676 5674 5673 5671 5670 5668 5667 5666 5664
5628 5619 5606 5604 5608 5618 5639 5650 5649 5645 5646 5653 5651 5655 5658 5661 5661 5664 5672 5674 5675 5677 5679 5680 5682 5682 5682 5682 5681 5679 5677 5676 5675 5674 5674 5673 5671 5669 5667 5666 5665 5664 5663 5661
5620 5616 5605 5599 5604 5609 5635 5650 5652 5645 5638 5651 5650 5650 5651 5651 5645 5657 5670 5672 5674 5676 5677 5678 5679 5679 5678 5678 5677 5674 5673 5672 5672 5672 5672 5670 5669 5667 5665 5664 5663 5662 5660 5659
5607 5603 5600 5597 5598 5612 5637 5645 5644 5627 5634 5649 5648 5648 5647 5646 5652 5661 5666 5668 5671 5672 5674 5675 5675 5675 5675 5675 5673 5670 5669 5669 5671 5670 5668 5667 5665 5664 5663 5661 5660 5658 5657 5655
5604 5599 5595 5593 5594 5610 5637 5635 5631 5634 5642 5645 5644 5645 5644 5646 5651 5656 5659 5662 5664 5666 5668 5670 5669 5670 5670 5670 5669 5667 5666 5668 5667 5666 5664 5663 5662 5661 5660 5657 5655 5654 5652 5650
5602 5606 5603 5605 5614 5627 5631 5633 5637 5637 5636 5638 5639 5641 5642 5643 5645 5649 5653 5656 5659 5660 5662 5664 5664 5665 5665 5665 5665 5664 5665 5664 5662 5660 5659 5658 5658 5656 5655 5654 5651 5649 5648 5646
5600 5604 5601 5602 5613 5622 5626 5629 5632 5633 5633 5636 5637 5638 5639 5638 5641 5643 5646 5649 5652 5654 5656 5658 5658 5659 5659 5660 5660 5661 5661 5659 5657 5656 5654 5653 5653 5651 5650 5649 5648 5646 5644 5643
5596 5595 5593 5597 5608 5614 5622 5624 5628 5630 5631 5633 5634 5635 5636 5636 5637 5639 5641 5644 5647 5649 5651 5653 5653 5654 5655 5655 5655 5655 5655 5654 5652 5651 5650 5649 5648 5646 5645 5644 5644 5644 5644 5644
5590 5592 5592 5599 5607 5607 5614 5622 5625 5625 5627 5629 5629 5630 5632 5633 5634 5636 5637 5639 5641 5643 5645 5646 5647 5648 5649 5649 5650 5650 5649 5649 5647 5645 5644 5643 5642 5641 5640 5639 5638 5639 5640 5640